sat.trackr.live / text

‹ back to catalog

STARLINK-6080

NORAD 56112 · 2023-046V

PAYLOAD ACTIVE UNKNOWN

§ Identity

Operator
Country
US
Launch date
2023-03-29
Launch site
AFETR
Launch vehicle
Mass (kg)
RCS (m²)

Purposes: comms

External: N2YO · Heavens-Above · Gunter

§ Orbital elements

Epoch: 2026-09-19T23:52:41.712672Z

Period
94.27 min
Inclination
43.0035°
Eccentricity
0.0001564
Mean motion
15.27579402 rev/d
Perigee alt
482.0 km
Apogee alt
484.1 km
Semi-major
6,861.2 km
B*
-1.4346e-5
RAAN
144.5905°
Arg perigee
274.5919°
Mean anomaly
85.4754°
Rev number
19,174

§ Raw data

STARLINK-60801 56112U 23046V   26262.99492723 -.00000657  00000+0 -14346-4 0  99942 56112  43.0035 144.5905 0001564 274.5919  85.4754 15.27579402191740

JSON: /api/v1/satellites/56112 · /tle

For live sub-satellite position, see the globe view (requires WebGL).

§ Visibility from observer

Set your observer location to see the next 7 days of passes ≥ 10°. The values pass through the URL so the page stays shareable.

No JS? Fill the form by hand. The geolocation button needs JavaScript.